Stündliche Wetter Holovanivka

Heute, 21 Juni, Montag

Zeit Temperatur Niederschläge Wind Luftdruck Luftfeuchtigkeit
00:00 +21°C° 0 mm 1 m/S 732 mmHg 90%
01:00 +21°C° 0 mm 1 m/S 732 mmHg 90%
02:00 +21°C° 0 mm 1 m/S 732 mmHg 91%
03:00 +21°C° 0 mm 1 m/S 732 mmHg 92%
04:00 +21°C° 0 mm 1 m/S 732 mmHg 93%
05:00 +21°C° 0 mm 1 m/S 732 mmHg 94%
06:00 +22°C° 0 mm 1 m/S 732 mmHg 89%
07:00 +24°C° 0 mm 1 m/S 732 mmHg 84%
08:00 +25°C° 0 mm 2 m/S 732 mmHg 77%
09:00 +27°C° 0 mm 2 m/S 732 mmHg 71%
10:00 +28°C° 0 mm 2 m/S 732 mmHg 65%
11:00 +30°C° 0 mm 2 m/S 732 mmHg 59%
12:00 +30°C° 0 mm 3 m/S 732 mmHg 58%
13:00 +30°C° 0 mm 3 m/S 732 mmHg 57%
14:00 +30°C° 0 mm 4 m/S 732 mmHg 57%
15:00 +29°C° 0.1 mm 3 m/S 732 mmHg 60%
16:00 +28°C° 0.1 mm 3 m/S 732 mmHg 62%
17:00 +27°C° 0.1 mm 3 m/S 732 mmHg 65%
18:00 +26°C° 0 mm 2 m/S 731 mmHg 72%
19:00 +24°C° 0 mm 1 m/S 731 mmHg 79%
20:00 +23°C° 0 mm 1 m/S 731 mmHg 86%
21:00 +22°C° 0 mm 1 m/S 731 mmHg 86%
22:00 +22°C° 0 mm 1 m/S 731 mmHg 86%
23:00 +22°C° 0 mm 1 m/S 731 mmHg 87%

Morgen, 22 Juni, Dienstag

Zeit Temperatur Niederschläge Wind Luftdruck Luftfeuchtigkeit
00:00 +21°C° 0 mm 1 m/S 731 mmHg 87%
01:00 +21°C° 0 mm 1 m/S 731 mmHg 88%
02:00 +21°C° 0 mm 1 m/S 731 mmHg 89%
03:00 +21°C° 0 mm 1 m/S 731 mmHg 88%
04:00 +21°C° 0 mm 1 m/S 731 mmHg 88%
05:00 +20°C° 0 mm 0 m/S 731 mmHg 87%
06:00 +23°C° 0 mm 1 m/S 731 mmHg 80%
07:00 +25°C° 0 mm 1 m/S 731 mmHg 73%
08:00 +27°C° 0 mm 1 m/S 732 mmHg 66%
09:00 +28°C° 0 mm 1 m/S 732 mmHg 62%
10:00 +29°C° 0 mm 1 m/S 732 mmHg 57%
11:00 +30°C° 0 mm 2 m/S 732 mmHg 53%
12:00 +30°C° 0.1 mm 2 m/S 732 mmHg 54%
13:00 +30°C° 0.1 mm 3 m/S 732 mmHg 55%
14:00 +30°C° 0.1 mm 3 m/S 732 mmHg 56%
15:00 +29°C° 0.3 mm 3 m/S 732 mmHg 61%
16:00 +28°C° 0.3 mm 3 m/S 733 mmHg 67%
17:00 +27°C° 0.3 mm 2 m/S 733 mmHg 72%
18:00 +25°C° 0.1 mm 2 m/S 733 mmHg 78%
19:00 +24°C° 0.1 mm 2 m/S 733 mmHg 84%
20:00 +22°C° 0.1 mm 1 m/S 733 mmHg 90%
21:00 +22°C° 0 mm 1 m/S 733 mmHg 91%
22:00 +21°C° 0 mm 1 m/S 733 mmHg 93%
23:00 +21°C° 0 mm 1 m/S 733 mmHg 94%

übermorgen, 23 Juni, Mittwoch

Zeit Temperatur Niederschläge Wind Luftdruck Luftfeuchtigkeit
00:00 +21°C° 0 mm 1 m/S 733 mmHg 94%
01:00 +20°C° 0 mm 1 m/S 733 mmHg 94%
02:00 +20°C° 0 mm 1 m/S 733 mmHg 95%
03:00 +20°C° 0 mm 1 m/S 733 mmHg 94%
04:00 +20°C° 0 mm 1 m/S 733 mmHg 93%
05:00 +21°C° 0 mm 1 m/S 733 mmHg 92%
06:00 +22°C° 0 mm 1 m/S 734 mmHg 86%
07:00 +23°C° 0 mm 1 m/S 734 mmHg 80%
08:00 +25°C° 0 mm 1 m/S 734 mmHg 74%
09:00 +26°C° 0 mm 1 m/S 734 mmHg 68%
10:00 +27°C° 0 mm 1 m/S 734 mmHg 63%
11:00 +29°C° 0 mm 2 m/S 734 mmHg 58%
12:00 +29°C° 0.1 mm 2 m/S 734 mmHg 57%
13:00 +29°C° 0.1 mm 2 m/S 734 mmHg 55%
14:00 +30°C° 0.1 mm 2 m/S 734 mmHg 54%
15:00 +29°C° 0.2 mm 2 m/S 734 mmHg 59%
16:00 +28°C° 0.2 mm 2 m/S 734 mmHg 64%
17:00 +27°C° 0.2 mm 2 m/S 734 mmHg 69%
18:00 +25°C° 0.2 mm 2 m/S 734 mmHg 75%
19:00 +24°C° 0.2 mm 1 m/S 734 mmHg 81%
20:00 +22°C° 0.2 mm 1 m/S 734 mmHg 87%
21:00 +22°C° 0 mm 1 m/S 734 mmHg 89%
22:00 +22°C° 0 mm 1 m/S 734 mmHg 90%
23:00 +21°C° 0 mm 1 m/S 734 mmHg 91%

24 Juni, Donnerstag

Zeit Temperatur Niederschläge Wind Luftdruck Luftfeuchtigkeit
00:00 +21°C° 0 mm 1 m/S 734 mmHg 92%
01:00 +21°C° 0 mm 1 m/S 734 mmHg 93%
02:00 +19°C° 0 mm 2 m/S 734 mmHg 95%
03:00 +21°C° 0 mm 1 m/S 734 mmHg 93%
04:00 +21°C° 0 mm 1 m/S 734 mmHg 92%
05:00 +21°C° 0 mm 1 m/S 734 mmHg 91%
06:00 +23°C° 0 mm 1 m/S 734 mmHg 82%
07:00 +25°C° 0 mm 1 m/S 734 mmHg 73%
08:00 +27°C° 0 mm 2 m/S 735 mmHg 64%
09:00 +28°C° 0 mm 2 m/S 735 mmHg 60%
10:00 +29°C° 0 mm 2 m/S 735 mmHg 55%
11:00 +30°C° 0 mm 1 m/S 735 mmHg 50%
12:00 +31°C° 0.1 mm 2 m/S 735 mmHg 49%
13:00 +31°C° 0.1 mm 2 m/S 735 mmHg 48%
14:00 +32°C° 0.1 mm 2 m/S 734 mmHg 47%
15:00 +30°C° 0.3 mm 2 m/S 734 mmHg 52%
16:00 +29°C° 0.3 mm 2 m/S 734 mmHg 57%
17:00 +28°C° 0.3 mm 2 m/S 734 mmHg 62%
18:00 +26°C° 1.9 mm 2 m/S 735 mmHg 72%
19:00 +25°C° 1.9 mm 2 m/S 735 mmHg 81%
20:00 +23°C° 1.9 mm 1 m/S 735 mmHg 90%
21:00 +22°C° 0.3 mm 1 m/S 735 mmHg 90%
22:00 +22°C° 0.3 mm 1 m/S 735 mmHg 89%
23:00 +22°C° 0.3 mm 1 m/S 735 mmHg 89%

25 Juni, Freitag

Zeit Temperatur Niederschläge Wind Luftdruck Luftfeuchtigkeit
00:00 +22°C° 0 mm 1 m/S 734 mmHg 88%
01:00 +22°C° 0 mm 1 m/S 734 mmHg 87%
02:00 +21°C° 0 mm 1 m/S 734 mmHg 87%
03:00 +22°C° 0 mm 1 m/S 734 mmHg 86%
04:00 +22°C° 0 mm 1 m/S 734 mmHg 85%
05:00 +22°C° 0 mm 1 m/S 734 mmHg 84%
06:00 +24°C° 0 mm 1 m/S 734 mmHg 78%
07:00 +25°C° 0 mm 1 m/S 734 mmHg 72%
08:00 +27°C° 0 mm 1 m/S 735 mmHg 66%
09:00 +28°C° 0.1 mm 1 m/S 735 mmHg 62%
10:00 +29°C° 0.1 mm 2 m/S 734 mmHg 58%
11:00 +30°C° 0.1 mm 2 m/S 734 mmHg 54%
12:00 +30°C° 0.5 mm 2 m/S 734 mmHg 54%
13:00 +30°C° 0.5 mm 2 m/S 734 mmHg 54%
14:00 +30°C° 0.5 mm 2 m/S 734 mmHg 54%
15:00 +29°C° 0.4 mm 2 m/S 734 mmHg 59%
16:00 +28°C° 0.4 mm 2 m/S 734 mmHg 64%
17:00 +27°C° 0.4 mm 2 m/S 734 mmHg 69%
18:00 +26°C° 0.3 mm 2 m/S 734 mmHg 74%
19:00 +25°C° 0.3 mm 2 m/S 734 mmHg 79%
20:00 +23°C° 0.3 mm 1 m/S 734 mmHg 85%
21:00 +23°C° 0.5 mm 1 m/S 734 mmHg 85%
22:00 +23°C° 0.5 mm 1 m/S 734 mmHg 86%
23:00 +22°C° 0.5 mm 1 m/S 734 mmHg 86%

26 Juni, Samstag

Zeit Temperatur Niederschläge Wind Luftdruck Luftfeuchtigkeit
00:00 +22°C° 0 mm 1 m/S 734 mmHg 87%
01:00 +22°C° 0 mm 1 m/S 733 mmHg 87%
02:00 +22°C° 0 mm 1 m/S 733 mmHg 88%
03:00 +22°C° 0 mm 1 m/S 733 mmHg 87%
04:00 +22°C° 0 mm 1 m/S 733 mmHg 86%
05:00 +22°C° 0 mm 1 m/S 733 mmHg 85%
06:00 +24°C° 0 mm 1 m/S 734 mmHg 80%
07:00 +25°C° 0 mm 1 m/S 734 mmHg 74%
08:00 +27°C° 0 mm 1 m/S 734 mmHg 69%
09:00 +28°C° 0 mm 1 m/S 734 mmHg 64%
10:00 +29°C° 0 mm 1 m/S 734 mmHg 59%
11:00 +30°C° 0 mm 1 m/S 734 mmHg 55%
12:00 +30°C° 0.4 mm 2 m/S 734 mmHg 54%
13:00 +30°C° 0.4 mm 2 m/S 733 mmHg 54%
14:00 +31°C° 0.4 mm 2 m/S 733 mmHg 53%
15:00 +30°C° 1.1 mm 2 m/S 733 mmHg 58%
16:00 +29°C° 1.1 mm 2 m/S 733 mmHg 63%
17:00 +27°C° 1.1 mm 2 m/S 733 mmHg 68%
18:00 +26°C° 0.2 mm 1 m/S 733 mmHg 74%
19:00 +25°C° 0.2 mm 1 m/S 733 mmHg 81%
20:00 +23°C° 0.2 mm 1 m/S 733 mmHg 87%
21:00 +23°C° 0.1 mm 1 m/S 733 mmHg 88%
22:00 +22°C° 0.1 mm 1 m/S 733 mmHg 89%
23:00 +22°C° 0.1 mm 1 m/S 733 mmHg 91%
Mehr zeigen

Wir brauchen deine Erlaubnis

Meteoprog und unser Service Anbieter werden persönliche Daten aufbewahren, so wie Cookies, Geräte Bezeichnung oder ähnliche Technologien von deinem Gerät und Prozess, so wie Persönliche Daten Inhalte und Werbungen, genauso wie social Media und den Verkehr zu analysieren.

  • Aufbewahrung und/oder Zugang zu deiner Geräte Informationen.

    Cookies, Geräte Bezeichnung oder andere Informationen, können aufbewahrt oder Zugang zu deinem Gerät erhalten, für den Grund, der oben angegeben wird.

  • Personalisierte Werbung und Inhalte, Messungen, Einblick in das Publikum und Produkt Entwicklung.

    Werbungen und Inhalte können personalisiert werden, basierend auf ein Profil. Mehr Daten können besser personalisierte Werbungen und Inhalte hinzufügen. Werbung und Inhalte können gezeigt und gemessen werden. Einblicke über das Publikum, welche die Werbung gesehen haben und den Inhalt, können abgeleitet werden. So wie Daten können genutzt werden, um es zu verbessern oder die Benutzer Erfahrung zu verbessern das System und die Software.

Wenn du “Ich stimme zu” klickst, erlaubst du uns, die Cookies zu benutzen die Geräte Bezeichnung, den Web oder ähnliche Technologien zu benutzen. Deine Settings, können in deinem Gerät bei deinem Browser geändert werden.

Für den bestimmten Zweck, berechtigten Interessen beruhen darauf, mehr als auf den Inhalt. Du kannst mehr darüber in unseren Privaten und Cookie Politik lesen.